LAGEOS 1

Last updated on Wed Aug 26 2026 00:04:27 GMT+0000 (Coordinated Universal Time)

1 08820U 76039A 26237.36089172 .00000003 00000+0 00000+0 0 9990 2 08820 109.8121 203.0062 0044638 287.4342 239.6511 6.38664814917550
UTC large
Height (km)
Speed (km/s)
/
Latitude / Longitude
Inclination (degrees)
Orbital Period (minutes)
Azimuth
Elevation
Range (km)
Doppler Factor

Next 0 passes for location: London (51.5072 / 0.1276)

No passes found over London.
LAGEOS 1